Погода в Радченке

Россия / Тверская область     56°40′51″N   36°22′24″E
темп.,
°C
ветер,
м/с
пор.,
м/с
влажн.,
%
обл.,
%
осадки,
мм/ч
давл.,
гПа
погр.,
м
17 июня, чт
чт1700:00+12ссз22657 0.0 102019
03:00+10ссз23755 0.0 102243
06:00+13с25745 0.0 1023142
09:00+18ссв22535 0.0 1024526
12:00+22ссз22410 0.0 10241346
15:00+23зсз23390 0.0 10241916
18:00+23зсз23515 0.0 10241023
21:00+17юз11610 0.0 102511
18 июня, пт
пт1800:00+14зюз22735 0.0 102614
03:00+13зюз22805 0.0 102712
06:00+15юз247513 0.0 1027111
09:00+21юз23565 0.0 1027425
12:00+24юз334430 0.0 10271364
15:00+25юз44455 0.0 10261598
18:00+24ююз35585 0.0 1025745
21:00+19юз34800 0.0 102567
19 июня, сб
сб1900:00+16юз37862 0.0 1026118
03:00+15юз39925 0.0 1026159
06:00+17юз39855 0.0 1026245
09:00+22юз456515 0.0 1026565
12:00+25юз44538 0.0 10251336
15:00+26юз44480 0.0 10241483
18:00+25ююз35574 0.0 1023674
21:00+20юз22770 0.0 102328
20 июня, вс
вс2000:00+17ююз33875 0.0 102441
03:00+15юз34904 0.0 102460
06:00+16ююз25845 0.0 1025145
09:00+22ююз34635 0.0 1024475
12:00+26ююз34481 0.0 10231200
15:00+27юз34440 0.0 10221449
18:00+27ююз34560 0.0 1021732
21:00+21юз22780 0.0 102120
21 июня, пн
пн2100:00+19юз23875 0.0 102137
03:00+17юз23891 0.0 102245
06:00+19юз24825 0.0 1022107
09:00+24ююз236598 0.0 1022448
12:00+28ююз2254100 0.0 1021946
15:00+29ююз124799 0.0 10201576
18:00+29з2156100 0.0 1020764
21:00+23зюз117392 0.0 102011